Location: Asheville, NC
(35.6000°N, 82.5500°W)
Time: 01:25:49
(UTC-04:00)

XW-2F - Pass Details

Date: 09 January 2018
Orbit: 507 x 525 km, 97.5° (Epoch: 20 July)

Event Time Altitude Azimuth Distance (km) Brightness Sun altitude
Rises 17:02:21 0° 133° (SE) 2,647 ? 4.9°
Reaches altitude 10° 17:04:54 10° 115° (ESE) 1,764 ? 4.5°
Drops below altitude 10° 17:10:17 10° 25° (NNE) 1,772 ? 3.5°
Maximum altitude 18:41:29 24° 264° (W) 1,113 ? -13.4°
Sets 18:47:03 0° 334° (NNW) 2,664 ? -14.4°
